Flag for Germany Weather past 2 weeks in Altenburg, Thuringia, Germany

Now
91 °F

Passing clouds.


Feels Like: 91 °F
Forecast: 66 / 81 °F
Wind: 3 mph from Northeast

Location: Altenburg Nobitz

Current Time: Jul 5, 2015 at 3:24:23 PM

Latest Report: Jul 5, 2015 at 2:50 PM


Visibility: N/A

Pressure: 30.01 "Hg

Humidity: 36%

Dew point: 61 °F

Location of AltenburgLocation

Historic Weather in Altenburg — Graph

°F

Altenburg temperature yesterday

Maximum temperature yesterday: 95 °F (at 2:20 PM)
Minimum temperature yesterday: 82 °F (at 9:20 AM)
Average temperature yesterday: 92 °F

Past Weeks' High & Low Weather Summary

 TemperatureHumidityPressure
High95 °F (Jul 4, 2:20 PM)88% (Jun 20, 6:20 PM)30.21 "Hg (Jun 20, 6:20 PM)
Low52 °F (Jun 20, 6:20 PM)30% (Jul 4, 3:20 PM)29.98 "Hg (Jun 21, 4:50 PM)
Average73 °F54%30.13 "Hg
* Reported Jun 20 2:20 PM — Jul 5 2:20 PM, Altenburg, Weather by CustomWeather, © 2015

Note: Actual official high and low records may vary slightly from our data, if they occured in-between our weather recording intervals... More about our weather records

Advertising

Altenburg weather history for previous 24 hours

 ConditionsComfort  
Time TempWeatherWind HumidityBarometerVisibility
2:20 PM
Sun, Jul 5
91 °FSunny.2 mph36%30.01 "Hg10 mi
1:50 PM91 °FPassing clouds.3 mph38%30.01 "HgN/A
1:20 PM91 °FSunny.3 mph36%30.04 "Hg10 mi
12:50 PM90 °FPassing clouds.3 mph41%30.04 "HgN/A
12:20 PM90 °FSunny.3 mph43%30.04 "Hg10 mi
11:50 AM90 °FPassing clouds.3 mph46%30.04 "HgN/A
11:20 AM88 °FPassing clouds.5 mph46%30.04 "HgN/A
10:50 AM86 °FPassing clouds.5 mph49%30.07 "HgN/A
10:20 AM86 °FPassing clouds.3 mph52%30.07 "HgN/A
9:50 AM86 °FSunny.3 mph55%30.07 "Hg10 mi
9:20 AM82 °FSunny.3 mph62%30.07 "Hg10 mi
6:50 PM
Sat, Jul 4
93 °FPassing clouds.5 mph44%30.07 "HgN/A
6:20 PM93 °FPassing clouds.5 mph36%30.09 "HgN/A
5:50 PM95 °FPassing clouds.3 mph34%30.09 "HgN/A
5:20 PM95 °FPassing clouds.3 mph34%30.09 "HgN/A
4:50 PM95 °FSunny.3 mph32%30.09 "Hg10 mi
4:20 PM95 °FPassing clouds.5 mph32%30.09 "HgN/A
3:50 PM95 °FPassing clouds.2 mph32%30.12 "HgN/A
3:20 PM95 °FPassing clouds.3 mph30%30.12 "HgN/A
Weather by CustomWeather, © 2015

See weather overviewHow to use our weather pages